DW0880 Weather Reports


time (UTC)temp
C
wind
direction
speed
KPH
gust
KPH
rain 1hr
cm
rain 24hr
cm
rain mn
cm
humidity
%
barometer
mb
20260507083505 16 217 1.6 16.1 0.00 0.10 0.05 61 1013.5
20260507083004 16 261 3.2 9.7 0.00 0.10 0.05 58 1013.6
20260507082502 16 205 1.6 12.9 0.00 0.10 0.05 54 1013.4
20260507082103 15 207 6.4 12.9 0.00 0.10 0.05 53 1013.5
20260507081604 15 231 4.8 11.3 0.00 0.10 0.05 53 1013.4
20260507081100 15 241 4.8 11.3 0.00 0.10 0.05 51 1013.4
20260507080556 15 245 3.2 9.7 0.00 0.10 0.05 52 1013.4
20260507080100 15 262 1.6 8.0 0.00 0.10 0.05 51 1013.2
20260507075555 15 237 1.6 8.0 0.00 0.10 0.05 51 1013.3
20260507075054 15 194 1.6 8.0 0.00 0.10 0.05 51 1013.3
20260507074607 15 248 1.6 6.4 0.00 0.10 0.05 52 1013.3
20260507074054 15 258 1.6 6.4 0.00 0.10 0.05 53 1013.3
20260507073554 15 241 1.6 12.9 0.00 0.10 0.05 52 1013.2
20260507073053 15 253 3.2 12.9 0.00 0.10 0.05 52 1013.3
20260507072553 15 263 4.8 14.5 0.00 0.10 0.05 51 1013.3
20260507072052 15 236 4.8 14.5 0.00 0.10 0.05 50 1013.2
20260507071552 15 232 3.2 8.0 0.00 0.10 0.05 49 1013.2
20260507071051 15 284 3.2 8.0 0.00 0.10 0.05 49 1013.2
20260507070550 15 263 3.2 8.0 0.00 0.10 0.05 48 1013.2
20260507070049 15 261 1.6 11.3 0.00 0.10 0.05 47 1013.0
20260507065549 15 241 0.0 11.3 0.00 0.10 0.05 46 1013.0
20260507065047 15 238 4.8 11.3 0.00 0.10 0.05 44 1012.9
20260507064547 14 256 1.6 8.0 0.00 0.10 0.05 43 1012.9
20260507064047 14 259 3.2 11.3 0.00 0.10 0.05 42 1012.9
20260507063545 14 225 4.8 11.3 0.00 0.10 0.05 42 1013.0
20260507063045 14 236 1.6 8.0 0.00 0.10 0.05 41 1013.0
20260507062544 13 198 1.6 8.0 0.00 0.10 0.05 40 1012.9
20260507062046 13 132 1.6 11.3 0.00 0.10 0.05 40 1013.0
20260507061543 13 210 3.2 11.3 0.00 0.10 0.05 39 1013.0
20260507061044 13 212 4.8 14.5 0.00 0.10 0.05 40 1013.0
20260507060542 13 173 4.8 14.5 0.00 0.10 0.05 36 1013.0
20260507060047 13 211 8.0 14.5 0.00 0.10 0.05 32 1012.9
20260507055641 13 206 6.4 12.9 0.00 0.10 0.05 30 1012.9
20260507055042 13 177 4.8 11.3 0.00 0.10 0.05 29 1012.8
20260507054552 12 194 4.8 11.3 0.00 0.10 0.05 29 1012.7
20260507054039 12 204 4.8 9.7 0.00 0.10 0.05 31 1012.7
20260507053537 12 159 4.8 9.7 0.00 0.10 0.05 31 1012.7
20260507053036 12 169 4.8 9.7 0.00 0.10 0.05 31 1012.8
20260507052536 12 183 3.2 9.7 0.00 0.10 0.05 31 1012.8
20260507052035 12 181 4.8 9.7 0.00 0.10 0.05 31 1012.8
20260507051535 12 196 1.6 6.4 0.00 0.10 0.05 31 1012.8
20260507051034 12 194 1.6 6.4 0.00 0.10 0.05 32 1012.8
20260507050532 12 188 1.6 8.0 0.00 0.10 0.05 32 1012.8
20260507050131 12 211 3.2 8.0 0.00 0.10 0.05 32 1012.7
20260507045531 12 203 4.8 8.0 0.00 0.10 0.05 33 1012.7
20260507045029 12 190 3.2 6.4 0.00 0.10 0.05 33 1012.8
20260507044527 12 217 1.6 9.7 0.00 0.10 0.05 33 1012.7
20260507044026 12 186 1.6 9.7 0.00 0.10 0.05 33 1012.6
20260507043526 12 209 1.6 4.8 0.00 0.10 0.05 33 1012.6
20260507043025 12 159 1.6 4.8 0.00 0.10 0.05 33 1012.6
20260507042525 12 175 0.0 6.4 0.00 0.10 0.05 33 1012.4
20260507042024 12 153 1.6 11.3 0.00 0.10 0.05 33 1012.4
20260507041523 12 219 3.2 11.3 0.00 0.10 0.05 33 1012.3
20260507041022 12 180 3.2 11.3 0.00 0.10 0.05 33 1012.3
20260507040523 12 173 0.0 6.4 0.00 0.10 0.05 33 1012.2
20260507040022 12 178 0.0 8.0 0.00 0.10 0.05 33 1012.2
20260507035521 12 188 3.2 8.0 0.00 0.10 0.05 33 1012.2
20260507035022 12 189 1.6 6.4 0.00 0.10 0.05 34 1012.2
20260507034521 12 201 3.2 8.0 0.00 0.10 0.05 34 1012.1
20260507034021 12 190 1.6 8.0 0.00 0.10 0.05 34 1012.1
20260507033521 12 192 3.2 8.0 0.00 0.10 0.05 34 1012.0
20260507033023 12 170 0.0 4.8 0.00 0.10 0.05 34 1012.0
20260507032520 12 181 0.0 4.8 0.00 0.10 0.05 34 1012.0
20260507032023 12 163 0.0 3.2 0.00 0.10 0.05 34 1012.0
20260507031519 12 128 0.0 3.2 0.00 0.10 0.05 34 1012.0
20260507031022 12 171 0.0 3.2 0.00 0.10 0.05 35 1011.9
20260507030520 12 150 0.0 4.8 0.00 0.10 0.05 35 1012.0
20260507030019 12 173 0.0 4.8 0.00 0.10 0.05 35 1012.0
20260507025518 12 137 1.6 4.8 0.00 0.10 0.05 35 1012.0
20260507025018 12 172 0.0 4.8 0.00 0.10 0.05 35 1012.0
20260507024521 12 130 0.0 4.8 0.03 0.10 0.05 35 1012.0
20260507024025 12 142 0.0 8.0 0.05 0.10 0.05 35 1012.0
20260507023517 12 135 1.6 8.0 0.05 0.10 0.05 35 1012.0
20260507023017 12 132 3.2 6.4 0.05 0.10 0.05 36 1011.9
20260507022516 12 183 0.0 6.4 0.05 0.10 0.05 36 1012.0
20260507022018 12 238 1.6 6.4 0.05 0.10 0.05 36 1012.0
20260507021515 12 242 0.0 4.8 0.05 0.10 0.05 36 1011.9
20260507021015 12 205 0.0 4.8 0.05 0.10 0.05 36 1011.9
20260507020517 12 237 1.6 4.8 0.05 0.10 0.05 37 1011.9
20260507020015 12 222 0.0 3.2 0.05 0.10 0.05 37 1011.9
20260507015515 12 215 0.0 4.8 0.05 0.10 0.05 37 1011.9
20260507015014 12 208 0.0 4.8 0.03 0.08 0.05 37 1011.9
20260507014518 12 213 0.0 4.8 0.03 0.08 0.05 37 1011.9
20260507014014 12 171 0.0 4.8 0.00 0.05 0.03 37 1011.8
20260507013513 12 175 0.0 4.8 0.00 0.05 0.03 37 1011.8
20260507013013 12 216 1.6 4.8 0.00 0.05 0.03 37 1011.8
20260507012513 12 196 0.0 4.8 0.00 0.05 0.03 38 1011.9
20260507012015 12 210 1.6 6.4 0.00 0.05 0.03 38 1012.0
20260507011512 12 214 1.6 6.4 0.00 0.05 0.03 38 1012.0
20260507011013 12 194 3.2 6.4 0.00 0.05 0.03 38 1011.9
20260507010511 12 211 0.0 6.4 0.00 0.05 0.03 38 1011.9
20260507010011 12 186 0.0 6.4 0.00 0.05 0.03 39 1011.9
20260507005510 12 198 1.6 9.7 0.00 0.05 0.03 39 1011.9
20260507005013 12 185 1.6 9.7 0.00 0.05 0.03 39 1011.9
20260507004513 12 195 3.2 9.7 0.00 0.05 0.03 39 1011.8
20260507004013 12 198 3.2 9.7 0.00 0.05 0.03 39 1011.8
20260507003509 12 215 0.0 6.4 0.00 0.05 0.03 40 1011.9
20260507003008 12 211 0.0 9.7 0.00 0.05 0.03 40 1011.8
20260507002508 12 205 3.2 9.7 0.00 0.05 0.03 40 1011.8
20260507002007 12 173 0.0 6.4 0.00 0.05 0.03 40 1011.7
20260507001506 12 144 1.6 6.4 0.00 0.05 0.03 40 1011.7
20260507001007 13 198 0.0 3.2 0.00 0.05 0.03 41 1011.7
20260507000505 13 187 0.0 6.4 0.00 0.05 0.03 41 1011.8
20260507000005 13 179 1.6 8.0 0.00 0.05 0.03 41 1011.7
20260506235505 13 197 3.2 9.7 0.00 0.05 0.03 41 1011.7
20260506235003 13 202 4.8 9.7 0.00 0.05 0.03 41 1011.9
20260506234503 13 194 1.6 9.7 0.00 0.05 0.03 42 1012.0
20260506234003 13 180 1.6 6.4 0.00 0.05 0.03 42 1012.0
20260506233503 13 206 3.2 6.4 0.00 0.05 0.03 43 1012.1
20260506233002 13 161 1.6 8.0 0.00 0.05 0.03 43 1012.1
20260506232502 13 166 1.6 8.0 0.03 0.05 0.03 44 1012.1
20260506232101 13 166 1.6 8.0 0.03 0.05 0.03 44 1012.1
20260506231600 13 143 0.0 4.8 0.03 0.05 0.03 44 1012.1
20260506231103 13 161 0.0 4.8 0.03 0.05 0.03 44 1012.2
20260506230558 13 157 0.0 4.8 0.03 0.05 0.03 44 1012.1
20260506230059 13 192 1.6 4.8 0.03 0.05 0.03 45 1012.2
20260506225558 13 189 1.6 11.3 0.03 0.05 0.03 45 1012.2
20260506225057 13 150 3.2 11.3 0.03 0.05 0.03 45 1012.2
20260506224557 13 145 0.0 6.4 0.03 0.05 0.03 45 1012.2
20260506224059 13 121 1.6 8.0 0.03 0.05 0.03 45 1012.2
20260506223559 13 189 1.6 9.7 0.03 0.05 0.03 46 1012.3
20260506223102 13 154 1.6 9.7 0.03 0.05 0.03 46 1012.3
20260506222556 13 150 3.2 11.3 0.00 0.05 0.00 46 1012.4
20260506222055 13 186 4.8 11.3 0.00 0.05 0.00 46 1012.3
20260506221556 13 64 3.2 11.3 0.00 0.05 0.00 46 1012.3
20260506221053 13 178 1.6 8.0 0.00 0.05 0.00 46 1012.3
20260506220553 13 142 1.6 14.5 0.00 0.05 0.00 46 1012.2
20260506220052 13 190 3.2 14.5 0.00 0.05 0.05 46 1012.3
20260506215551 13 126 3.2 11.3 0.00 0.05 0.05 46 1012.2
20260506215052 13 134 4.8 14.5 0.00 0.05 0.05 46 1012.2
20260506214553 13 169 4.8 14.5 0.00 0.05 0.05 46 1012.1
20260506214051 13 144 3.2 11.3 0.00 0.05 0.05 45 1012.2
20260506213554 13 158 3.2 8.0 0.00 0.05 0.05 45 1012.2
20260506213110 13 156 0.0 4.8 0.00 0.05 0.05 46 1012.2
20260506212551 13 150 1.6 6.4 0.00 0.05 0.05 46 1012.2
20260506212051 13 150 1.6 6.4 0.00 0.05 0.05 46 1012.2
20260506211551 13 122 1.6 4.8 0.00 0.05 0.05 46 1012.2
20260506211050 13 118 0.0 6.4 0.00 0.05 0.05 46 1012.2
20260506210551 13 101 0.0 6.4 0.00 0.05 0.05 47 1012.1
20260506210054 13 113 0.0 4.8 0.00 0.05 0.05 47 1012.1
20260506205550 13 175 0.0 4.8 0.00 0.05 0.05 47 1012.1
20260506205050 13 161 1.6 6.4 0.00 0.05 0.05 47 1012.2
20260506204552 13 168 0.0 6.4 0.00 0.05 0.05 48 1012.2
20260506204049 13 127 0.0 6.4 0.00 0.05 0.05 48 1012.1
20260506203553 13 186 1.6 6.4 0.00 0.05 0.05 48 1012.2
20260506203050 13 166 1.6 8.0 0.00 0.05 0.05 49 1012.1
20260506202553 14 144 1.6 11.3 0.00 0.05 0.05 49 1012.0
20260506202049 14 151 1.6 11.3 0.03 0.05 0.05 49 1012.1
20260506201549 14 132 1.6 12.9 0.05 0.05 0.05 50 1012.0
20260506201047 14 129 4.8 14.5 0.05 0.05 0.05 51 1011.9
20260506200547 14 136 4.8 16.1 0.05 0.05 0.05 52 1011.9
20260506200048 14 167 6.4 16.1 0.05 0.05 0.05 53 1011.8
20260506195547 14 180 4.8 16.1 0.05 0.05 0.05 54 1011.9
20260506195048 15 140 6.4 16.1 0.05 0.05 0.05 55 1011.8
20260506194548 15 140 6.4 16.1 0.05 0.05 0.05 56 1011.7
20260506194052 15 146 6.4 14.5 0.05 0.05 0.05 57 1011.7
20260506193547 15 139 6.4 12.9 0.05 0.05 0.05 58 1011.7
20260506193047 15 144 3.2 11.3 0.05 0.05 0.05 59 1011.8
20260506192546 15 186 4.8 12.9 0.05 0.05 0.05 60 1011.8
20260506192049 15 179 4.8 12.9 0.03 0.03 0.03 61 1011.8
20260506191546 15 197 4.8 9.7 0.00 0.00 0.00 62 1011.7
20260506191046 15 215 3.2 8.0 0.00 0.00 0.00 63 1011.6
20260506190545 15 228 3.2 8.0 0.00 0.00 0.00 63 1011.3
20260506190045 15 219 3.2 14.5 0.00 0.00 0.00 63 1011.2
20260506185545 15 210 4.8 17.7 0.00 0.00 0.00 63 1011.2
20260506185045 15 201 8.0 17.7 0.00 0.00 0.00 63 1011.1
20260506184545 15 219 4.8 14.5 0.00 0.00 0.00 63 1011.0
20260506184045 15 119 4.8 14.5 0.00 0.00 0.00 63 1011.0
20260506183545 15 192 3.2 9.7 0.00 0.00 0.00 63 1011.0
20260506183045 15 175 1.6 6.4 0.00 0.00 0.00 63 1011.0
20260506182544 15 179 1.6 8.0 0.00 0.00 0.00 63 1011.0
20260506182043 16 219 3.2 9.7 0.00 0.00 0.00 63 1011.0
20260506181544 16 208 3.2 9.7 0.00 0.00 0.00 63 1011.1
20260506181044 16 210 3.2 9.7 0.00 0.00 0.00 63 1011.1
20260506180546 16 215 3.2 9.7 0.00 0.00 0.00 63 1011.0
20260506180055 16 208 1.6 8.0 0.00 0.00 0.00 63 1010.8
20260506175543 16 214 1.6 11.3 0.00 0.00 0.00 62 1010.7
20260506175044 16 188 3.2 20.9 0.00 0.00 0.00 62 1010.6
20260506174545 16 248 4.8 20.9 0.00 0.00 0.00 63 1010.7
20260506174043 16 217 8.0 20.9 0.00 0.00 0.00 63 1010.7
20260506173543 16 213 4.8 17.7 0.00 0.00 0.00 63 1010.8
20260506173043 16 213 4.8 17.7 0.00 0.00 0.00 63 1010.8
20260506172542 16 229 3.2 25.7 0.00 0.00 0.00 63 1010.7
20260506172042 17 232 9.7 25.7 0.00 0.00 0.00 63 1010.8
20260506171544 17 225 3.2 19.3 0.00 0.00 0.00 64 1010.8
20260506171045 17 234 6.4 16.1 0.00 0.00 0.00 64 1010.6
20260506170541 17 199 6.4 19.3 0.00 0.00 0.00 64 1010.7
20260506170055 17 205 11.3 19.3 0.00 0.00 0.00 65 1010.7
20260506165542 17 200 4.8 20.9 0.00 0.00 0.00 65 1010.6
20260506165041 17 213 8.0 20.9 0.00 0.00 0.00 65 1010.5
20260506164542 17 244 8.0 20.9 0.00 0.00 0.00 65 1010.6
20260506164044 17 234 9.7 22.5 0.00 0.00 0.00 65 1010.5
20260506163544 17 197 3.2 22.5 0.00 0.00 0.00 65 1010.5
20260506163100 17 250 11.3 22.5 0.00 0.00 0.00 65 1010.4
20260506162543 17 211 3.2 25.7 0.00 0.00 0.00 65 1010.5
20260506162044 17 236 12.9 25.7 0.00 0.00 0.00 65 1010.6
20260506161540 18 245 11.3 25.7 0.00 0.00 0.00 66 1010.5
20260506161042 18 231 11.3 22.5 0.00 0.00 0.00 66 1010.4
20260506160539 18 211 6.4 37.0 0.00 0.00 0.00 65 1010.5
20260506160040 18 218 8.0 37.0 0.00 0.00 0.00 65 1010.6
20260506155541 18 215 14.5 37.0 0.00 0.00 0.00 66 1010.5
20260506155039 18 239 4.8 19.3 0.00 0.00 0.00 65 1010.4
20260506154557 17 282 4.8 19.3 0.00 0.00 0.00 65 1010.3
20260506154039 17 282 6.4 16.1 0.00 0.00 0.00 65 1010.4
20260506153539 18 231 6.4 16.1 0.00 0.00 0.00 65 1010.5
20260506153049 18 227 1.6 17.7 0.00 0.00 0.00 65 1010.5
20260506152640 18 218 6.4 19.3 0.00 0.00 0.00 65 1010.4
20260506152038 18 229 6.4 22.5 0.00 0.00 0.00 65 1010.3
20260506151538 18 263 3.2 22.5 0.00 0.00 0.00 64 1010.3
20260506151038 18 233 6.4 16.1 0.00 0.00 0.00 64 1010.5
20260506150537 18 251 3.2 16.1 0.00 0.00 0.00 63 1010.4
20260506150037 18 210 4.8 16.1 0.00 0.00 0.00 63 1010.4
20260506145536 18 172 4.8 16.1 0.00 0.00 0.00 63 1010.4
20260506145037 19 194 3.2 19.3 0.00 0.00 0.00 62 1010.5
20260506144536 19 219 9.7 22.5 0.00 0.00 0.00 61 1010.5
20260506144036 19 204 9.7 22.5 0.00 0.00 0.00 61 1010.6
20260506143539 19 171 9.7 32.2 0.00 0.00 0.00 62 1010.5
20260506143046 19 198 9.7 32.2 0.00 0.00 0.00 62 1010.3
20260506142540 20 213 9.7 17.7 0.00 0.00 0.00 62 1010.3
20260506142034 20 208 8.0 17.7 0.00 0.00 0.00 61 1010.3
20260506141537 20 246 11.3 19.3 0.00 0.00 0.00 61 1010.4
20260506141034 21 215 11.3 19.3 0.00 0.00 0.00 61 1010.2
20260506140535 21 238 9.7 16.1 0.00 0.00 0.00 61 1010.4
20260506140032 21 204 8.0 20.9 0.00 0.00 0.00 63 1010.5
20260506135531 20 277 9.7 35.4 0.00 0.00 0.00 63 1010.6
20260506135030 20 217 11.3 35.4 0.00 0.00 0.00 64 1010.7
20260506134530 19 271 8.0 25.7 0.00 0.00 0.00 64 1010.8
20260506134029 19 209 11.3 27.4 0.00 0.00 0.00 65 1011.0
20260506133528 19 202 12.9 27.4 0.00 0.00 0.00 64 1010.9
20260506133030 19 242 11.3 22.5 0.00 0.00 0.00 64 1010.9
20260506132528 19 182 8.0 22.5 0.00 0.00 0.00 64 1011.0
20260506132028 19 266 9.7 19.3 0.00 0.00 0.00 65 1011.0
20260506131528 18 173 8.0 19.3 0.00 0.00 0.00 65 1011.2
20260506131028 18 178 9.7 19.3 0.00 0.00 0.00 64 1011.3
20260506130528 20 200 9.7 19.3 0.00 0.00 0.00 62 1011.3
20260506130028 20 219 9.7 27.4 0.00 0.00 0.00 62 1011.3
20260506125527 21 202 14.5 27.4 0.00 0.00 0.00 62 1011.2
20260506125028 21 208 11.3 19.3 0.00 0.00 0.00 63 1011.1
20260506124526 20 190 8.0 22.5 0.00 0.00 0.00 64 1011.1
20260506124026 20 250 8.0 22.5 0.00 0.00 0.00 64 1011.1
20260506123526 20 215 9.7 22.5 0.00 0.00 0.00 63 1011.3
20260506123027 20 221 11.3 27.4 0.00 0.00 0.00 62 1011.2
20260506122526 20 249 9.7 25.7 0.00 0.00 0.00 62 1011.1
20260506122024 20 262 14.5 25.7 0.00 0.00 0.00 61 1011.2
20260506121524 20 219 11.3 37.0 0.00 0.00 0.00 63 1010.9
20260506121022 20 225 12.9 37.0 0.00 0.00 0.00 63 1011.1
20260506120521 19 225 11.3 22.5 0.00 0.00 0.00 63 1011.1
20260506120023 19 208 11.3 22.5 0.00 0.00 0.00 62 1011.2
20260506115521 19 209 12.9 22.5 0.00 0.00 0.00 62 1011.2
20260506115021 19 184 8.0 27.4 0.00 0.00 0.00 62 1011.1
20260506114522 19 224 14.5 27.4 0.00 0.00 0.00 63 1011.1
20260506114018 19 257 8.0 16.1 0.00 0.00 0.00 63 1011.1
20260506113518 18 234 9.7 17.7 0.00 0.00 0.00 63 1011.3
20260506113018 18 213 6.4 24.1 0.00 0.00 0.00 64 1011.2
20260506112523 18 195 9.7 24.1 0.00 0.00 0.00 64 1011.3
20260506112021 18 200 9.7 22.5 0.00 0.00 0.00 65 1011.4
20260506111517 18 236 4.8 19.3 0.00 0.00 0.00 65 1011.3
20260506111016 18 279 6.4 24.1 0.00 0.00 0.00 64 1011.4
20260506110520 18 140 8.0 32.2 0.00 0.00 0.00 64 1011.5
20260506110016 18 214 12.9 32.2 0.00 0.00 0.00 65 1011.5
20260506105516 18 208 6.4 27.4 0.00 0.00 0.00 65 1011.5
20260506105015 18 204 9.7 27.4 0.00 0.00 0.00 65 1011.5
20260506104515 18 217 8.0 22.5 0.00 0.00 0.00 65 1011.5
20260506104015 19 269 6.4 22.5 0.00 0.00 0.00 65 1011.5
20260506103513 18 225 3.2 16.1 0.00 0.00 0.00 65 1011.4
20260506103012 18 199 4.8 11.3 0.00 0.00 0.00 65 1011.4
20260506102511 17 196 6.4 11.3 0.00 0.00 0.00 64 1011.4
20260506102010 17 203 4.8 12.9 0.00 0.00 0.00 64 1011.7
20260506101510 17 211 1.6 12.9 0.00 0.00 0.00 64 1011.7
20260506101009 17 221 3.2 11.3 0.00 0.00 0.00 64 1011.7
20260506100509 17 227 1.6 11.3 0.00 0.00 0.00 64 1011.6
20260506100009 17 280 1.6 17.7 0.00 0.00 0.00 65 1011.7
20260506095511 17 242 4.8 17.7 0.00 0.00 0.00 64 1011.8
20260506095013 17 214 6.4 14.5 0.00 0.00 0.00 64 1011.7
20260506094509 17 238 4.8 14.5 0.00 0.00 0.00 64 1011.7
20260506094008 17 227 1.6 11.3 0.00 0.00 0.00 64 1011.6
20260506093508 17 205 3.2 9.7 0.00 0.00 0.00 64 1011.6
20260506093008 17 221 1.6 9.7 0.00 0.00 0.00 65 1011.6
20260506092509 16 190 4.8 9.7 0.00 0.00 0.00 65 1011.7
20260506092008 16 213 4.8 14.5 0.00 0.00 0.00 65 1011.7
20260506091508 16 205 8.0 14.5 0.00 0.00 0.00 65 1011.7
20260506091008 16 167 8.0 17.7 0.00 0.00 0.00 65 1011.7
20260506090507 16 183 8.0 17.7 0.00 0.00 0.00 65 1011.6
20260506090007 17 169 6.4 16.1 0.00 0.00 0.00 66 1011.7
20260506085506 17 188 9.7 16.1 0.00 0.00 0.00 66 1011.6
20260506085007 17 214 8.0 16.1 0.00 0.00 0.00 66 1011.5
20260506084506 17 201 6.4 14.5 0.00 0.00 0.00 65 1011.6
20260506084006 17 163 9.7 16.1 0.00 0.00 0.00 66 1011.7